Weather History for KBIJ - May, 2013

Change the Weather History Date:

Monday, May 6, 2013

  Actual Average (KDHN) Record (KDHN)
Temperature  
Mean Temperature 56 °F 72 °F  
Max Temperature 69 °F 84 °F 95 °F (1952)
Min Temperature 44 °F 60 °F 44 °F (2013)
Degree Days  
Heating Degree Days 8    
Cooling Degree Days 0 7  
Month to date cooling degree days 39  
Year to date cooling degree days 160  
Growing Degree Days 6 (Base 50)    
Moisture  
Dew Point 49 °F    
Average Humidity 75    
Maximum Humidity 100    
Minimum Humidity 49    
Precipitation  
Precipitation 0.00 in 0.10 in 1.03 in (1956)
Month to date precipitation 0.57  
Year to date precipitation 19.37  
Sea Level Pressure  
Sea Level Pressure 29.95 in    
Wind  
Wind Speed 3 mph (WSW)    
Max Wind Speed 13 mph    
Max Gust Speed 21 mph    
Visibility 10 miles    
Events      
T = Trace of Precipitation, MM = Missing Value Source: NWS Daily Summary

Daily Weather History Graph

Daily Weather History Graph

Search for Another Location

Airport or City:

Trip Planner

Search our weather history database for the weather conditions in past years. The results will help you decide how hot, cold, wet, or windy it might be!

Date:

Astronomy

May. 06, 2013 Rise Set
Actual Time 6:49 AM EDT 8:22 PM EDT
Civil Twilight 6:23 AM EDT 8:48 PM EDT
Nautical Twilight 5:52 AM EDT 9:20 PM EDT
Astronomical Twilight 5:19 AM EDT 9:53 PM EDT
Moon 4:39 AM EDT (5/6) 5:32 PM EDT (5/6)
Length of Visible Light 14h 25m
Length of Day
13h 32m
Waning Crescent, 11% of the Moon is Illuminated
May 6
Waning Crescent
May 9
New
May 18
First Quarter
May 25
Full
May 31
Last Quarter

Hourly Weather History & Observations

Time (EDT) Temp. Windchill Dew Point Humidity Pressure Visibility Wind Dir Wind Speed Gust Speed Precip Events Conditions
12:15 AM 53.6 °F - 46.4 °F 77% 29.93 in 10.0 mi Calm Calm - N/A   Clear
12:35 AM 53.6 °F - 44.6 °F 72% 29.93 in 10.0 mi Calm Calm - N/A   Clear
12:55 AM 51.8 °F - 44.6 °F 76% 29.93 in 10.0 mi Calm Calm - N/A   Clear
1:15 AM 51.8 °F - 44.6 °F 76% 29.93 in 10.0 mi Calm Calm - N/A   Clear
1:35 AM 50.0 °F - 46.4 °F 87% 29.94 in 10.0 mi Calm Calm - N/A   Clear
1:55 AM 50.0 °F - 44.6 °F 82% 29.93 in 10.0 mi Calm Calm - N/A   Clear
2:35 AM 50.0 °F - 44.6 °F 82% 29.93 in 10.0 mi Calm Calm - N/A   Clear
2:55 AM 48.2 °F - 44.6 °F 87% 29.93 in 10.0 mi Calm Calm - N/A   Clear
3:15 AM 48.2 °F - 44.6 °F 87% 29.92 in 10.0 mi Calm Calm - N/A   Clear
3:35 AM 48.2 °F - 44.6 °F 87% 29.92 in 10.0 mi Calm Calm - N/A   Clear
3:55 AM 46.4 °F - 44.6 °F 93% 29.93 in 10.0 mi Calm Calm - N/A   Clear
4:15 AM 46.4 °F - 44.6 °F 93% 29.93 in 10.0 mi Calm Calm - N/A   Clear
4:35 AM 46.4 °F - 44.6 °F 93% 29.93 in 10.0 mi Calm Calm - N/A   Clear
4:55 AM 46.4 °F - 44.6 °F 93% 29.93 in 10.0 mi Calm Calm - N/A   Clear
5:15 AM 46.4 °F - 44.6 °F 93% 29.93 in 10.0 mi Calm Calm - N/A   Clear
5:35 AM 44.6 °F - 44.6 °F 100% 29.94 in 10.0 mi Calm Calm - N/A   Clear
5:55 AM 44.6 °F - 44.6 °F 100% 29.95 in 10.0 mi Calm Calm - N/A   Clear
6:35 AM 44.6 °F - 44.6 °F 100% 29.95 in 10.0 mi Calm Calm - N/A   Clear
6:55 AM 44.6 °F - 44.6 °F 100% 29.96 in 10.0 mi Calm Calm - N/A   Clear
7:15 AM 44.6 °F - 44.6 °F 100% 29.97 in 10.0 mi Calm Calm - N/A   Clear
7:35 AM 44.6 °F - 44.6 °F 100% 29.97 in 10.0 mi Calm Calm - N/A   Clear
7:55 AM 46.4 °F 44.3 °F 46.4 °F 100% 29.98 in 10.0 mi WSW 4.6 mph - N/A   Clear
8:15 AM 50.0 °F - 46.4 °F 87% 29.98 in 10.0 mi West 5.8 mph - N/A   Clear
8:35 AM 51.8 °F - 46.4 °F 82% 29.99 in 10.0 mi West 6.9 mph - N/A   Clear
8:55 AM 53.6 °F - 48.2 °F 82% 29.99 in 10.0 mi West 4.6 mph - N/A   Clear
9:35 AM 55.4 °F - 50.0 °F 82% 30.00 in 10.0 mi West 5.8 mph - N/A   Clear
9:55 AM 57.2 °F - 50.0 °F 77% 29.99 in 10.0 mi WNW 9.2 mph - N/A   Clear
10:15 AM 59.0 °F - 50.0 °F 72% 29.99 in 10.0 mi West 9.2 mph - N/A   Clear
10:35 AM 59.0 °F - 50.0 °F 72% 29.99 in 10.0 mi WNW 6.9 mph - N/A   Clear
10:55 AM 60.8 °F - 50.0 °F 68% 30.00 in 10.0 mi West 8.1 mph - N/A   Scattered Clouds
11:15 AM 62.6 °F - 48.2 °F 59% 30.00 in 10.0 mi WSW 11.5 mph 18.4 mph N/A   Clear
11:35 AM 62.6 °F - 50.0 °F 63% 30.00 in 10.0 mi West 6.9 mph 16.1 mph N/A   Scattered Clouds
11:55 AM 62.6 °F - 48.2 °F 59% 30.00 in 10.0 mi West 8.1 mph 17.3 mph N/A   Mostly Cloudy
12:15 PM 62.6 °F - 48.2 °F 59% 30.00 in 10.0 mi West 8.1 mph 11.5 mph N/A   Overcast
12:35 PM 62.6 °F - 48.2 °F 59% 29.99 in 10.0 mi West 8.1 mph - N/A   Overcast
12:55 PM 64.4 °F - 50.0 °F 59% 29.98 in 10.0 mi West 9.2 mph 17.3 mph N/A   Overcast
1:15 PM 62.6 °F - 48.2 °F 59% 29.98 in 10.0 mi WSW 8.1 mph 18.4 mph N/A   Overcast
1:35 PM 66.2 °F - 50.0 °F 56% 29.98 in 10.0 mi WSW 10.4 mph 18.4 mph N/A   Overcast
1:55 PM 64.4 °F - 50.0 °F 59% 29.97 in 10.0 mi West 8.1 mph - N/A   Overcast
2:15 PM 66.2 °F - 50.0 °F 56% 29.97 in 10.0 mi WSW 12.7 mph 18.4 mph N/A   Mostly Cloudy
2:35 PM 68.0 °F - 51.8 °F 56% 29.96 in 10.0 mi West 8.1 mph 16.1 mph N/A   Scattered Clouds
2:55 PM 69.8 °F - 50.0 °F 49% 29.95 in 10.0 mi WSW 12.7 mph 19.6 mph N/A   Scattered Clouds
3:15 PM 69.8 °F - 50.0 °F 49% 29.95 in 10.0 mi WSW 10.4 mph 18.4 mph N/A   Scattered Clouds
3:35 PM 68.0 °F - 51.8 °F 56% 29.94 in 10.0 mi West 4.6 mph - N/A   Mostly Cloudy
3:55 PM 69.8 °F - 51.8 °F 53% 29.93 in 10.0 mi WSW 12.7 mph 18.4 mph N/A   Mostly Cloudy
4:15 PM 68.0 °F - 50.0 °F 52% 29.92 in 10.0 mi SW 8.1 mph 19.6 mph N/A   Mostly Cloudy
4:35 PM 69.8 °F - 51.8 °F 53% 29.91 in 10.0 mi WSW 12.7 mph 17.3 mph N/A   Overcast
4:55 PM 68.0 °F - 50.0 °F 52% 29.92 in 10.0 mi WSW 10.4 mph 20.7 mph N/A   Scattered Clouds
5:15 PM 68.0 °F - 51.8 °F 56% 29.91 in 10.0 mi WSW 11.5 mph - N/A   Mostly Cloudy
5:35 PM 68.0 °F - 51.8 °F 56% 29.91 in 10.0 mi West 10.4 mph 18.4 mph N/A   Overcast
5:55 PM 68.0 °F - 51.8 °F 56% 29.91 in 10.0 mi West 5.8 mph - N/A   Mostly Cloudy
6:15 PM 68.0 °F - 51.8 °F 56% 29.91 in 10.0 mi West 8.1 mph - N/A   Mostly Cloudy
6:55 PM 66.2 °F - 51.8 °F 60% 29.91 in 10.0 mi West 8.1 mph - N/A   Overcast
7:15 PM 66.2 °F - 51.8 °F 60% 29.91 in 10.0 mi West 4.6 mph - N/A   Overcast
7:35 PM 66.2 °F - 51.8 °F 60% 29.92 in 10.0 mi WSW 9.2 mph - N/A   Overcast
7:55 PM 64.4 °F - 53.6 °F 68% 29.93 in 10.0 mi WSW 9.2 mph - N/A   Overcast
8:15 PM 62.6 °F - 53.6 °F 72% 29.94 in 10.0 mi WSW 9.2 mph - N/A   Light Drizzle
8:35 PM 62.6 °F - 53.6 °F 72% 29.94 in 10.0 mi WSW 6.9 mph - N/A   Overcast
8:55 PM 60.8 °F - 53.6 °F 77% 29.95 in 10.0 mi West 6.9 mph 19.6 mph N/A   Overcast
9:15 PM 60.8 °F - 55.4 °F 82% 29.95 in 10.0 mi Calm Calm - N/A   Overcast
9:35 PM 59.0 °F - 55.4 °F 88% 29.95 in 10.0 mi Calm Calm - N/A   Overcast
9:55 PM 59.0 °F - 55.4 °F 88% 29.97 in 10.0 mi Calm Calm - N/A   Overcast
10:15 PM 59.0 °F - 55.4 °F 88% 29.96 in 10.0 mi Calm Calm - N/A   Overcast
10:35 PM 59.0 °F - 55.4 °F 88% 29.97 in 10.0 mi Calm Calm - N/A   Overcast
10:55 PM 59.0 °F - 55.4 °F 88% 29.97 in 10.0 mi WSW 3.5 mph - N/A   Overcast
11:15 PM 59.0 °F - 53.6 °F 82% 29.97 in 10.0 mi SW 4.6 mph - N/A   Overcast
11:35 PM 59.0 °F - 53.6 °F 82% 29.96 in 10.0 mi Calm Calm - N/A   Overcast
11:55 PM 59.0 °F - 53.6 °F 82% 29.96 in 10.0 mi Calm Calm - N/A   Overcast